When you browse on this site, cookies collect data to enhance your experience and personalize the content and advertising you see.
Visit our Privacy Policy to learn more. By continuing to use the site, you agree to this use of cookies and data.
  • In Latvia
  • List of Countries
  • For 7 days
  • Water Temperature
  • Weather Map
  • Weather Widgets
  • user-avatar
    Login

    Hourly Weather Duabo

    Today, 17 September, Tuesday

    Time Temperature Precipitation Wind Pressure Humidity
    00:00 +24°C° 0 mm 1 mps 741 mmHg 98%
    01:00 +24°C° 0 mm 1 mps 741 mmHg 97%
    02:00 +24°C° 0 mm 1 mps 740 mmHg 97%
    03:00 +24°C° 0 mm 1 mps 740 mmHg 97%
    04:00 +24°C° 0 mm 1 mps 740 mmHg 98%
    05:00 +24°C° 0 mm 1 mps 740 mmHg 98%
    06:00 +25°C° 0.1 mm 1 mps 741 mmHg 95%
    07:00 +25°C° 0.1 mm 1 mps 741 mmHg 93%
    08:00 +26°C° 0.1 mm 1 mps 741 mmHg 91%
    09:00 +27°C° 0.4 mm 1 mps 741 mmHg 87%
    10:00 +28°C° 0.4 mm 1 mps 741 mmHg 83%
    11:00 +29°C° 0.4 mm 1 mps 741 mmHg 79%
    12:00 +29°C° 1.1 mm 2 mps 740 mmHg 81%
    13:00 +29°C° 1.1 mm 2 mps 739 mmHg 83%
    14:00 +29°C° 1.1 mm 2 mps 739 mmHg 85%
    15:00 +28°C° 0.6 mm 2 mps 739 mmHg 88%
    16:00 +27°C° 0.6 mm 2 mps 739 mmHg 91%
    17:00 +26°C° 0.6 mm 2 mps 739 mmHg 94%
    18:00 +26°C° 0.1 mm 2 mps 740 mmHg 95%
    19:00 +25°C° 0.1 mm 2 mps 740 mmHg 97%
    20:00 +24°C° 0.1 mm 1 mps 741 mmHg 98%
    21:00 +24°C° 0 mm 1 mps 741 mmHg 98%
    22:00 +24°C° 0 mm 1 mps 741 mmHg 98%
    23:00 +24°C° 0 mm 1 mps 741 mmHg 99%

    Tomorrow, 18 September, Wednesday

    Time Temperature Precipitation Wind Pressure Humidity
    00:00 +24°C° 0 mm 1 mps 741 mmHg 99%
    01:00 +24°C° 0 mm 1 mps 740 mmHg 99%
    02:00 +23°C° 0 mm 1 mps 740 mmHg 98%
    03:00 +23°C° 0.1 mm 1 mps 740 mmHg 99%
    04:00 +23°C° 0.1 mm 1 mps 740 mmHg 99%
    05:00 +23°C° 0.1 mm 1 mps 741 mmHg 99%
    06:00 +24°C° 0.1 mm 1 mps 741 mmHg 96%
    07:00 +25°C° 0.1 mm 1 mps 741 mmHg 93%
    08:00 +26°C° 0.1 mm 1 mps 742 mmHg 90%
    09:00 +28°C° 0.2 mm 1 mps 741 mmHg 82%
    10:00 +29°C° 0.2 mm 1 mps 741 mmHg 74%
    11:00 +31°C° 0.2 mm 1 mps 741 mmHg 66%
    12:00 +31°C° 0.2 mm 1 mps 740 mmHg 64%
    13:00 +31°C° 0.2 mm 1 mps 740 mmHg 63%
    14:00 +32°C° 0.2 mm 2 mps 739 mmHg 61%
    15:00 +30°C° 0.8 mm 1 mps 739 mmHg 71%
    16:00 +29°C° 0.8 mm 1 mps 739 mmHg 81%
    17:00 +27°C° 0.8 mm 1 mps 740 mmHg 92%
    18:00 +26°C° 0.3 mm 1 mps 740 mmHg 93%
    19:00 +25°C° 0.3 mm 1 mps 741 mmHg 95%
    20:00 +24°C° 0.3 mm 1 mps 741 mmHg 96%
    21:00 +24°C° 0 mm 1 mps 741 mmHg 97%
    22:00 +24°C° 0 mm 1 mps 742 mmHg 98%
    23:00 +23°C° 0 mm 1 mps 742 mmHg 98%

    Day after tomorrow, 19 September, Thursday

    Time Temperature Precipitation Wind Pressure Humidity
    00:00 +23°C° 0 mm 1 mps 741 mmHg 98%
    01:00 +23°C° 0 mm 1 mps 741 mmHg 99%
    02:00 +21°C° 0 mm 0 mps 740 mmHg 99%
    03:00 +23°C° 0 mm 1 mps 741 mmHg 98%
    04:00 +23°C° 0 mm 1 mps 741 mmHg 98%
    05:00 +23°C° 0 mm 1 mps 741 mmHg 98%
    06:00 +24°C° 0 mm 1 mps 741 mmHg 96%
    07:00 +25°C° 0 mm 1 mps 741 mmHg 93%
    08:00 +25°C° 0 mm 1 mps 742 mmHg 91%
    09:00 +26°C° 0.2 mm 1 mps 741 mmHg 89%
    10:00 +26°C° 0.2 mm 1 mps 741 mmHg 87%
    11:00 +25°C° 0.2 mm 0 mps 741 mmHg 86%
    12:00 +28°C° 0.4 mm 1 mps 741 mmHg 80%
    13:00 +29°C° 0.4 mm 1 mps 740 mmHg 74%
    14:00 +30°C° 0.4 mm 1 mps 740 mmHg 68%
    15:00 +29°C° 1 mm 1 mps 740 mmHg 76%
    16:00 +28°C° 1 mm 1 mps 740 mmHg 84%
    17:00 +27°C° 1 mm 1 mps 740 mmHg 92%
    18:00 +26°C° 0.4 mm 1 mps 740 mmHg 94%
    19:00 +25°C° 0.4 mm 1 mps 741 mmHg 96%
    20:00 +24°C° 0.4 mm 1 mps 741 mmHg 98%
    21:00 +24°C° 0 mm 1 mps 741 mmHg 98%
    22:00 +24°C° 0 mm 1 mps 741 mmHg 98%
    23:00 +24°C° 0 mm 1 mps 741 mmHg 98%

    20 September, Friday

    Time Temperature Precipitation Wind Pressure Humidity
    00:00 +24°C° 0 mm 1 mps 741 mmHg 98%
    01:00 +24°C° 0 mm 1 mps 741 mmHg 98%
    02:00 +24°C° 0 mm 1 mps 740 mmHg 98%
    03:00 +24°C° 0.1 mm 1 mps 740 mmHg 98%
    04:00 +24°C° 0.1 mm 1 mps 741 mmHg 98%
    05:00 +24°C° 0.1 mm 1 mps 741 mmHg 98%
    06:00 +24°C° 0.3 mm 1 mps 741 mmHg 96%
    07:00 +25°C° 0.3 mm 1 mps 741 mmHg 95%
    08:00 +26°C° 0.3 mm 1 mps 742 mmHg 93%
    09:00 +26°C° 1.1 mm 1 mps 741 mmHg 91%
    10:00 +27°C° 1.1 mm 1 mps 741 mmHg 89%
    11:00 +28°C° 1.1 mm 1 mps 740 mmHg 87%
    12:00 +28°C° 2 mm 2 mps 740 mmHg 88%
    13:00 +28°C° 2 mm 2 mps 739 mmHg 88%
    14:00 +28°C° 2 mm 2 mps 739 mmHg 89%
    15:00 +27°C° 1.2 mm 2 mps 739 mmHg 91%
    16:00 +26°C° 1.2 mm 2 mps 739 mmHg 94%
    17:00 +25°C° 1.2 mm 2 mps 740 mmHg 96%
    18:00 +25°C° 0.1 mm 2 mps 740 mmHg 96%
    19:00 +24°C° 0.1 mm 2 mps 741 mmHg 97%
    20:00 +24°C° 0.1 mm 2 mps 741 mmHg 97%
    21:00 +24°C° 0 mm 1 mps 741 mmHg 98%
    22:00 +24°C° 0 mm 1 mps 742 mmHg 98%
    23:00 +24°C° 0 mm 1 mps 742 mmHg 98%

    21 September, Saturday

    Time Temperature Precipitation Wind Pressure Humidity
    00:00 +24°C° 0 mm 1 mps 741 mmHg 98%
    01:00 +23°C° 0 mm 1 mps 741 mmHg 98%
    02:00 +23°C° 0 mm 1 mps 741 mmHg 98%
    03:00 +23°C° 0 mm 1 mps 741 mmHg 98%
    04:00 +23°C° 0 mm 1 mps 741 mmHg 98%
    05:00 +23°C° 0 mm 1 mps 741 mmHg 98%
    06:00 +24°C° 0 mm 1 mps 741 mmHg 94%
    07:00 +25°C° 0 mm 1 mps 742 mmHg 90%
    08:00 +26°C° 0 mm 2 mps 742 mmHg 86%
    09:00 +28°C° 0 mm 2 mps 742 mmHg 77%
    10:00 +30°C° 0 mm 1 mps 741 mmHg 69%
    11:00 +31°C° 0 mm 1 mps 741 mmHg 60%
    12:00 +31°C° 0.4 mm 1 mps 740 mmHg 63%
    13:00 +31°C° 0.4 mm 1 mps 740 mmHg 66%
    14:00 +31°C° 0.4 mm 1 mps 739 mmHg 68%
    15:00 +29°C° 0.9 mm 1 mps 739 mmHg 77%
    16:00 +28°C° 0.9 mm 1 mps 739 mmHg 85%
    17:00 +26°C° 0.9 mm 2 mps 739 mmHg 93%
    18:00 +25°C° 0.1 mm 2 mps 740 mmHg 94%
    19:00 +25°C° 0.1 mm 2 mps 740 mmHg 96%
    20:00 +24°C° 0.1 mm 1 mps 741 mmHg 97%
    21:00 +24°C° 0 mm 1 mps 741 mmHg 98%
    22:00 +23°C° 0 mm 1 mps 741 mmHg 98%
    23:00 +23°C° 0 mm 1 mps 742 mmHg 98%

    22 September, Sunday

    Time Temperature Precipitation Wind Pressure Humidity
    00:00 +23°C° 0 mm 1 mps 741 mmHg 98%
    01:00 +23°C° 0 mm 1 mps 741 mmHg 98%
    02:00 +23°C° 0 mm 1 mps 740 mmHg 98%
    03:00 +23°C° 0 mm 1 mps 741 mmHg 98%
    04:00 +21°C° 0 mm 0 mps 741 mmHg 98%
    05:00 +21°C° 0 mm 0 mps 741 mmHg 98%
    06:00 +21°C° 0 mm 0 mps 741 mmHg 97%
    07:00 +22°C° 0 mm 0 mps 742 mmHg 96%
    08:00 +22°C° 0 mm 0 mps 742 mmHg 95%
    09:00 +23°C° 0.1 mm 0 mps 742 mmHg 93%
    10:00 +23°C° 0.1 mm 0 mps 742 mmHg 91%
    11:00 +23°C° 0.1 mm 0 mps 741 mmHg 89%
    12:00 +25°C° 0 mm 0 mps 741 mmHg 80%
    13:00 +29°C° 0 mm 1 mps 740 mmHg 71%
    14:00 +31°C° 0 mm 1 mps 740 mmHg 62%
    15:00 +30°C° 0.1 mm 1 mps 740 mmHg 69%
    16:00 +28°C° 0.1 mm 1 mps 740 mmHg 76%
    17:00 +27°C° 0.1 mm 1 mps 740 mmHg 83%
    18:00 +26°C° 0 mm 1 mps 740 mmHg 87%
    19:00 +25°C° 0 mm 1 mps 741 mmHg 91%
    20:00 +24°C° 0 mm 1 mps 741 mmHg 96%
    21:00 +24°C° 0 mm 1 mps 741 mmHg 96%
    22:00 +24°C° 0 mm 1 mps 741 mmHg 97%
    23:00 +23°C° 0 mm 1 mps 741 mmHg 98%
    Show more